Regional Weather Roundup
Issued by NWS

Home | Current Version | Previous Version | Text Only | Print | Product List | Glossary Off
Versions: 1 2 3 4 5 6 7 8 9 10 11 12 13 14 15 16 17 18 19 20 21 22 23 24 25 26 27 28 29 30 31 32 33 34 35 36 37 38 39 40 41 42 43 44 45 46 47 48 49 50

534
ASUS45 KCYS 230210
RWRWY

WYOMING REGIONAL WEATHER ROUNDUP
NATIONAL WEATHER SERVICE CHEYENNE WY
800 PM MDT SUN APR 22 2018

NOTE:  "FAIR" INDICATES FEW OR NO CLOUDS BELOW 12,000 FEET
WITH NO SIGNIFICANT WEATHER AND/OR OBSTRUCTIONS TO VISIBILITY.

WYZ001-230300-
YELLOWSTONE NATIONAL PARK

CITY           SKY/WX    TMP DP  RH WIND       PRES   REMARKS
LK YELLOWSTONE NOT AVBL
W YELLOWSTONE  NOT AVBL

$$
WYZ002>013-054>058-071-098>099-230300-
NORTHERN WYOMING

CITY           SKY/WX    TMP DP  RH WIND       PRES   REMARKS
JACKSON        MOCLDY    55  29  36 N5        30.04S
CODY           FAIR      58  30  34 N10       30.03R
GREYBULL       FAIR      69  30  23 N6        29.93F
WORLAND        FAIR      62  34  35 NE7       29.93S
SHERIDAN       FAIR      61  40  45 E5        30.02R
BUFFALO        FAIR      57  40  52 N7        30.07R
GILLETTE       FAIR      59  40  49 NE10      30.03R
HULETT         FAIR      57  37  47 E7        30.08R
NEWCASTLE      FAIR      54  34  47 E14       30.07R

$$
WYZ014>020-022>026-101>103-230300-
CENTRAL WYOMING

CITY           SKY/WX    TMP DP  RH WIND       PRES   REMARKS
BIG PINEY      FAIR      57  20  23 W7        30.07S
PINEDALE       FAIR      52  27  37 N10       30.08S
DUBOIS         FAIR      50  23  34 W10       30.07S
LANDER         FAIR      63  28  26 CALM      29.96S
RIVERTON       FAIR      61  25  25 E7        29.97F
CASPER         FAIR      59  33  37 E14       30.01S
DOUGLAS        FAIR      57  36  45 SE12      30.05R

$$
WYZ021-027>030-104>119-230300-
SOUTHERN WYOMING

CITY           SKY/WX    TMP DP  RH WIND       PRES   REMARKS
EVANSTON       FAIR      58  21  24 W12       30.07S
KEMMERER       FAIR      55  25  30 W6        30.08S
FORT BRIDGER   CLOUDY    63  19  18 W13       30.09S
ROCK SPRINGS   FAIR      59  19  21 SW6       30.05F
DIXON          FAIR      59  28  30 CALM      30.10S
RAWLINS          N/A    N/A N/A N/A MISG      30.06S
SARATOGA       FAIR      54  23  30 SW7       30.09S
LARAMIE        FAIR      49  36  61 SE15      30.12R
CHEYENNE       FAIR      53  32  44 SE9       30.12R
TORRINGTON     FAIR      54  37  52 E10       30.07R
PINE BLUFFS    FAIR      50  36  57 SE8G17    30.11R

$$




USA.gov is the U.S. government's official web portal to all federal, state and local government web resources and services.